Volver al catálogo

ECHOSTAR 2

ActivoComunicacionesGEO
NORAD 24313·PAYLOAD·🇺🇸 United States

Lanzado Sep 11, 1996 desde Guiana Space Centre

Loading…

TLE

ActualizadoSource: Space-Track

Época: Sep 14, 2026, 08:42 UTC

1 24313U 96055A   26257.36273455 -.00000301  00000-0  00000-0 0  9990
2 24313  12.1049  30.8316 0011058 104.8879 285.2998  1.00299288109917

Sigue ECHOSTAR 2 en tiempo real con AllMySat

Download on the App Store